Flag for Japan Weather past 2 weeks in Kumamoto, Japan

Now
68 °F

Lots of rain. Fog.


Feels Like: 68 °F
Forecast: 63 / 84 °F
Wind: 3 mph from North

Location: Kumamoto Airport

Current Time: May 30, 2015 at 3:53:14 PM

Latest Report: May 30, 2015 at 3:02 PM


Visibility: 1 mi

Pressure: 29.59 "Hg

Humidity: 94%

Dew point: 66 °F

Location of KumamotoLocation

Historic Weather in Kumamoto — Graph

°F

Kumamoto temperature yesterday

Maximum temperature yesterday: 84 °F (at 2:00 PM)
Minimum temperature yesterday: 70 °F (at 7:00 AM)
Average temperature yesterday: 79 °F

Past Weeks' High & Low Weather Summary

 TemperatureHumidityPressure
High86 °F (May 26, 4:00 PM)100% (May 16, 7:00 AM)30.04 "Hg (May 16, 7:00 AM)
Low57 °F (May 17, 7:00 AM)25% (May 21, 2:00 PM)29.59 "Hg (May 30, 2:45 PM)
Average73 °F59%29.79 "Hg
* Reported May 15 2:00 PM — May 30 2:45 PM, Kumamoto, Weather by CustomWeather, © 2015

Note: Actual official high and low records may vary slightly from our data, if they occured in-between our weather recording intervals... More about our weather records

Advertising

Kumamoto weather history for previous 24 hours

 ConditionsComfort  
Time TempWeatherWind HumidityBarometerVisibility
2:45 PM
Sat, May 30
68 °FRain showers. Fog.3 mph94%29.59 "Hg1 mi
2:00 PM68 °FLight rain. Fog.3 mph94%29.62 "Hg2 mi
1:03 PM68 °FRain. Fog.2 mph94%29.65 "Hg1 mi
1:00 PM68 °FRain. Fog.1 mph94%29.65 "Hg1 mi
12:00 PM70 °FLight rain. Broken clouds.5 mph88%29.65 "Hg4 mi
11:00 AM70 °FLight rain. Clear.7 mph78%29.68 "Hg4 mi
10:00 AM72 °FSunny.1 mph73%29.71 "Hg10 mi
9:00 AM70 °FLight rain. Partly sunny.1 mph83%29.71 "HgN/A
8:00 AM73 °FSunny.3 mph65%29.71 "Hg10 mi
7:00 AM72 °FSunny.2 mph69%29.71 "Hg10 mi
9:00 PM
Fri, May 29
73 °FClear.3 mph57%29.74 "Hg10 mi
8:00 PM73 °FPassing clouds.5 mph57%29.74 "HgN/A
7:00 PM75 °FPartly sunny.9 mph54%29.74 "HgN/A
6:00 PM79 °FPartly sunny.10 mph45%29.71 "HgN/A
5:00 PM81 °FBroken clouds.12 mph45%29.68 "HgN/A
4:00 PM84 °FPassing clouds.12 mph40%29.68 "HgN/A
3:00 PM84 °FScattered clouds.10 mph43%29.68 "HgN/A
Weather by CustomWeather, © 2015

See weather overviewHow to use our weather pages